Wind_Speed
16 4 6 13 19 22 25 29 20 27 25 24 16 17 19 20 18 19 17 17 15 10 6 7 4 4 5 8 7 8 8 8 7 7 5 4 2 2 2 2 4 6 7 7
14 16 11 12 16 17 26 28 26 29 27 21 15 14 18 19 20 20 20 18 11 7 4 3 3 4 5 6 6 6 6 6 6 5 5 4 3 5 2 2 4 5 6 7
15 10 6 9 28 23 23 26 25 24 32 19 13 18 21 21 22 22 18 13 10 7 6 5 7 7 8 8 6 6 7 6 7 7 6 7 6 3 1 2 2 4 5 6
4 7 9 13 13 22 28 28 25 26 27 22 20 19 22 20 20 18 11 10 9 9 10 9 9 9 8 6 6 6 6 5 4 6 7 7 5 2 2 3 3 5 5 6
5 8 13 15 11 8 14 23 21 26 25 25 16 14 18 15 9 10 11 9 10 10 10 10 8 6 5 3 3 3 4 6 7 6 5 4 3 3 2 3 4 4 5 6
4 7 12 13 10 6 5 15 14 19 20 18 12 13 10 13 11 10 11 12 12 12 10 8 7 6 6 7 7 6 5 4 7 7 4 4 4 4 5 5 5 5 5 5
10 8 8 5 6 10 10 7 1 11 15 15 14 11 4 12 11 12 12 12 11 10 8 9 9 8 8 8 6 5 5 4 5 7 6 5 6 6 6 7 7 7 6 6
8 9 12 9 13 14 3 3 0 4 10 15 11 4 6 9 9 11 12 13 11 11 10 10 10 9 9 8 7 6 7 5 5 5 4 6 5 7 8 8 8 7 6 6
11 7 3 13 5 5 1 3 4 3 5 8 9 6 8 8 8 5 10 10 12 11 11 12 12 11 9 10 12 10 8 9 8 6 5 6 6 8 7 6 5 5 6 6
5 8 6 13 1 4 2 3 3 3 5 7 7 3 4 4 4 5 9 11 12 12 12 12 12 13 10 10 11 11 10 10 9 9 8 6 6 6 5 6 6 6 7 8
3 5 6 10 6 5 4 4 6 6 3 2 5 5 7 6 6 7 8 9 9 10 9 10 10 11 10 11 13 12 10 10 11 9 9 8 6 4 5 4 5 6 6 7
4 8 2 9 8 7 5 2 5 2 3 4 3 5 5 5 6 8 9 9 10 10 9 9 10 11 11 12 12 11 10 11 9 9 9 9 8 7 6 6 7 8 8 7
6 8 8 7 3 0 2 2 4 3 2 3 3 3 5 5 8 9 10 10 11 12 11 10 12 15 13 13 13 12 11 10 9 10 10 11 11 10 9 7 6 6 8 9
7 5 3 5 3 5 6 7 5 8 8 8 9 9 9 10 10 9 9 11 13 12 14 17 18 18 16 15 13 14 11 11 10 10 11 11 11 10 11 11 10 9 8 9
3 3 3 2 4 7 6 7 9 10 9 9 10 9 10 9 10 12 12 9 7 10 11 15 17 15 15 13 14 14 12 10 11 13 13 12 11 12 12 12 12 12 11 10
2 4 5 7 8 8 8 8 9 9 8 8 8 11 13 15 15 13 11 10 12 13 12 12 13 13 14 14 14 13 11 11 11 12 12 12 12 13 12 12 13 12 12 12
2 4 3 4 5 7 8 7 7 6 5 6 7 8 10 14 14 11 7 8 8 11 14 16 15 13 12 13 13 11 11 12 12 11 12 13 13 13 12 12 12 12 11 12
1 3 4 7 8 7 6 5 4 6 5 4 3 4 6 7 7 9 9 10 10 11 12 13 12 12 11 12 11 11 12 13 13 13 13 13 13 12 12 12 12 11 11 12
1 1 2 3 1 6 5 3 2 4 3 4 7 4 2 3 6 13 16 15 12 11 9 10 12 13 12 13 12 11 12 13 13 13 13 13 13 12 11 11 11 11 12 13
2 2 2 3 4 3 1 1 2 2 3 9 10 8 6 5 11 14 16 10 8 7 12 11 12 12 13 14 13 10 11 12 14 13 14 14 12 12 11 11 11 11 11 12
3 4 3 3 4 3 2 2 7 7 9 11 11 11 10 9 11 13 12 8 6 12 11 14 12 12 12 13 12 11 12 12 12 13 14 13 13 12 12 11 11 11 11 10
2 3 3 3 4 5 5 5 8 10 10 11 12 13 14 12 9 6 4 6 10 12 12 11 11 14 13 14 10 12 12 12 11 12 13 13 13 12 12 12 12 11 11 10
1 2 4 4 4 5 7 8 7 9 11 12 12 12 10 10 8 7 5 8 10 12 11 11 13 16 16 12 12 12 12 12 11 11 12 12 12 12 12 12 12 12 11 11
2 2 3 4 5 5 5 5 6 7 10 12 12 11 11 9 5 3 6 13 12 13 12 14 17 16 15 13 12 12 12 11 11 11 11 12 11 11 11 12 11 11 11 11
4 4 4 5 6 4 6 7 8 7 7 7 8 8 6 5 6 9 10 11 13 12 11 15 17 16 13 14 13 12 11 11 11 11 11 12 12 12 11 12 12 11 11 11
7 6 5 5 5 6 6 6 5 6 7 7 6 6 7 6 9 10 10 10 12 11 12 16 15 13 13 12 12 11 10 10 12 11 11 11 12 12 12 12 12 11 11 11
6 6 7 6 5 5 5 4 6 7 7 8 8 9 9 9 9 9 10 10 11 13 15 16 15 13 13 12 12 11 10 10 11 12 12 12 12 13 12 12 12 11 11 11
Wind_Direction
236 233 223 212 218 216 217 228 225 245 241 247 232 216 206 202 197 200 199 208 213 224 241 247 245 221 193 183 179 183 173 162 148 137 150 176 180 195 226 234 235 241 236 232
228 227 239 242 239 233 224 235 235 247 251 251 273 204 217 206 203 205 212 217 216 210 221 217 164 150 142 150 150 151 150 144 140 145 167 187 196 187 124 311 272 253 241 222
236 199 219 256 236 230 236 236 239 241 247 253 242 223 215 210 206 208 213 211 200 185 175 154 127 134 137 138 141 150 162 170 174 179 186 181 191 191 100 201 227 215 211 200
228 138 217 241 234 232 236 238 238 246 253 250 246 233 224 220 212 215 212 186 173 164 146 132 125 132 145 152 164 182 181 181 174 173 173 171 177 157 200 198 191 219 219 204
198 202 279 272 221 211 216 247 245 249 246 258 260 244 229 220 222 221 191 170 152 140 135 142 144 146 138 139 163 161 170 172 166 164 162 162 155 174 191 202 171 186 191 190
164 232 231 250 269 172 181 256 250 245 243 239 183 209 205 176 178 169 157 151 143 142 146 148 145 147 144 155 151 156 161 160 163 157 152 186 190 190 185 173 160 159 174 189
205 230 257 233 148 151 208 266 96 213 229 211 206 228 111 151 173 159 158 154 151 153 160 165 166 163 169 168 174 179 177 205 187 167 166 195 182 160 169 160 146 147 162 163
224 234 236 158 163 205 265 99 80 224 213 203 216 133 128 157 157 158 160 163 169 172 174 172 171 169 179 190 194 201 199 206 228 201 167 165 169 155 156 150 145 146 149 141
205 222 67 180 240 186 93 182 118 147 159 186 185 177 164 174 163 130 169 174 179 182 181 184 189 194 199 207 194 192 187 198 203 193 194 190 164 161 153 156 154 157 163 152
178 185 173 183 159 171 132 92 84 94 128 162 177 135 64 63 126 167 192 198 194 196 196 196 198 205 216 192 186 187 191 198 194 186 180 186 177 171 171 178 184 179 172 167
211 174 162 183 177 134 104 106 104 90 79 153 158 167 187 197 200 203 202 207 206 207 212 210 202 204 197 187 191 186 193 200 194 185 183 179 171 175 185 174 184 180 175 170
219 169 159 138 152 146 154 128 67 64 95 106 176 175 188 205 220 219 217 217 216 218 216 210 203 198 192 187 184 187 188 194 184 180 182 182 175 159 167 161 170 171 169 169
134 112 103 118 132 162 266 175 140 137 160 198 188 244 249 250 251 255 257 247 237 230 214 204 201 193 190 188 185 196 203 187 178 179 181 187 182 174 149 118 119 139 162 167
105 125 171 206 217 221 226 218 234 260 262 259 260 262 257 255 247 239 249 257 251 236 216 207 197 199 192 194 189 191 190 188 179 180 185 179 176 168 161 155 145 131 132 143
177 207 259 168 221 231 234 244 251 254 256 252 249 251 250 244 249 259 263 258 234 219 203 195 195 193 188 194 195 187 190 185 179 182 177 169 164 162 161 154 147 142 135 134
202 231 223 233 250 245 233 234 242 247 245 249 250 255 262 266 266 263 257 228 199 195 193 186 181 188 189 188 185 178 174 176 169 168 163 163 167 164 161 155 155 154 156 156
192 186 185 238 239 242 230 234 235 235 226 232 246 264 282 277 254 244 226 204 209 178 172 180 181 181 183 186 170 164 159 161 167 162 166 170 168 166 163 164 165 167 158 164
332 311 285 267 256 255 212 214 229 220 207 277 276 241 255 247 239 213 174 169 153 143 159 163 167 169 169 173 160 156 153 163 168 170 169 168 165 164 165 168 170 167 158 162
83 307 289 294 233 217 237 256 244 199 244 186 136 94 46 326 234 155 155 148 147 145 152 161 161 163 161 163 157 158 161 164 169 169 166 159 160 161 163 166 166 166 165 163
79 44 34 64 58 50 157 177 229 185 170 150 134 112 96 95 125 130 134 132 145 145 154 157 157 163 162 164 155 159 161 168 168 163 163 164 161 159 162 162 160 160 162 166
65 42 42 64 72 64 90 157 159 134 138 146 141 135 130 130 131 131 134 141 138 146 150 159 158 157 161 163 160 161 166 171 168 166 165 164 160 160 161 161 161 160 160 164
26 45 58 80 97 88 85 114 128 128 138 136 132 132 130 131 133 123 126 156 155 155 155 159 162 165 163 163 167 168 169 167 170 170 167 163 165 164 163 162 162 163 163 166
39 70 90 92 100 90 87 97 121 137 134 137 139 146 151 153 155 159 150 158 161 165 163 163 170 170 167 169 170 170 174 172 172 175 171 168 169 168 166 165 165 167 170 170
139 120 113 117 117 122 113 102 112 122 133 142 151 160 153 153 141 135 148 162 170 169 166 169 170 172 169 172 174 174 178 177 176 175 169 168 169 167 167 167 170 174 175 176
153 144 135 142 141 126 131 135 125 125 130 136 143 158 168 166 176 162 154 161 169 167 165 171 171 170 174 181 179 177 177 176 177 173 171 173 171 170 170 174 179 180 183 186
172 168 147 155 142 147 150 167 167 165 164 162 162 162 159 154 155 156 160 166 170 172 168 171 172 175 185 182 184 177 176 176 176 175 175 174 173 174 176 178 180 182 185 187
169 169 167 167 164 164 161 158 166 175 179 175 173 175 173 169 169 168 168 169 175 179 180 181 186 186 190 185 185 184 180 180 180 181 179 177 179 179 180 182 185 188 192 194
Height
733 737 735 733 740 744 749 741 752 732 737 722 726 740 739 742 748 754 759 761 764 769 774 777 779 782 783 786 789 791 792 793 794 796 799 802 802 802 802 800 799 801 801 802
747 736 745 743 736 732 736 734 735 730 725 712 715 729 737 740 744 749 754 756 761 768 774 777 778 780 784 788 791 792 794 795 795 795 796 798 799 799 795 798 798 798 799 800
739 742 756 759 724 730 729 724 726 732 711 715 724 728 729 733 736 741 746 753 761 767 772 776 777 780 784 787 789 790 791 792 791 792 794 792 795 796 791 792 795 796 797 797
749 765 758 710 703 706 715 710 712 715 710 710 710 719 722 727 733 738 748 756 761 766 771 774 777 780 782 783 784 788 788 789 791 791 793 792 790 791 793 791 790 795 796 796
751 750 724 706 707 717 714 708 705 707 707 713 714 716 720 725 733 739 750 754 760 764 769 774 776 780 782 783 786 787 789 788 790 792 792 792 790 791 794 793 790 793 796 797
748 737 727 698 695 707 712 717 702 702 704 710 724 728 717 731 742 746 751 754 759 764 769 773 778 781 781 784 785 786 789 788 787 787 788 791 790 791 793 794 792 792 796 798
731 731 709 695 713 714 723 702 699 703 708 714 724 715 720 728 738 744 749 755 759 763 768 772 775 777 780 782 785 787 787 787 787 788 788 791 790 789 794 794 792 794 797 798
732 726 718 701 715 710 700 706 709 710 707 715 721 726 729 732 741 744 749 754 758 762 766 769 772 774 777 779 784 785 785 785 787 788 788 791 791 790 793 792 793 795 798 799
702 697 706 699 700 705 709 708 712 714 717 720 725 729 731 734 741 746 749 753 758 761 764 767 769 771 774 777 779 780 778 781 785 784 788 791 790 792 793 793 794 796 798 799
708 703 706 706 712 712 714 712 713 716 718 722 726 733 741 745 746 749 752 753 754 756 759 763 765 767 771 775 776 778 780 780 781 782 786 789 791 791 793 793 794 795 797 798
704 705 710 709 712 713 716 717 719 721 722 725 731 733 736 739 743 746 749 751 752 753 756 759 763 766 769 771 772 774 778 782 780 780 784 788 790 791 792 793 794 794 796 797
697 696 696 704 713 715 716 716 716 720 724 728 729 731 734 737 740 741 745 748 749 751 754 757 760 763 766 767 769 774 775 779 777 779 783 787 789 791 792 792 793 794 795 798
702 705 706 713 717 718 718 720 723 725 729 730 733 735 736 738 740 741 743 744 747 748 751 753 757 759 762 765 765 770 773 774 774 777 781 785 787 789 791 793 793 794 796 798
707 709 712 715 714 718 719 720 724 727 728 730 732 733 734 735 737 738 739 740 741 744 746 749 752 755 757 762 764 765 769 771 772 775 780 783 785 787 789 791 793 796 798 799
709 712 712 716 718 718 720 722 723 723 725 727 729 731 731 732 733 734 735 736 739 742 745 746 749 752 755 759 762 762 767 770 772 775 779 782 784 787 789 790 793 796 799 801
711 712 713 715 714 716 718 719 720 720 722 724 726 727 728 729 729 730 732 735 737 738 742 744 748 751 754 757 759 761 765 768 772 776 778 781 783 785 787 789 792 795 798 801
711 708 710 711 713 714 714 715 715 716 719 722 723 724 725 725 727 728 731 733 735 735 739 742 746 750 753 755 757 761 764 768 772 775 778 780 782 784 786 788 791 794 797 800
714 716 717 719 720 714 712 714 715 716 718 720 723 723 726 726 726 727 731 733 736 738 740 742 745 748 751 755 759 761 764 768 772 775 777 779 780 782 785 787 790 793 797 799
717 717 718 717 713 712 711 712 714 716 720 721 722 724 725 725 725 726 729 734 737 739 742 743 745 748 752 756 759 762 765 768 771 774 776 778 780 782 784 787 789 792 795 798
717 717 716 714 714 714 714 716 718 718 719 720 722 725 727 728 728 729 731 735 737 738 741 743 746 750 753 756 759 762 765 768 771 773 775 777 779 781 784 786 789 792 794 797
715 716 715 715 715 716 716 716 717 717 719 721 723 724 727 730 732 733 734 735 738 739 741 744 748 751 754 757 760 762 765 768 770 772 774 776 778 781 784 786 789 791 793 796
717 717 717 717 717 717 717 717 717 718 721 723 725 727 729 732 735 735 736 737 740 741 743 746 749 751 754 757 760 763 765 767 770 772 773 775 777 780 783 785 788 790 793 795
718 719 718 718 718 718 719 719 720 721 722 724 726 729 731 733 734 735 736 739 741 742 744 746 749 752 754 757 760 762 765 766 768 770 772 774 776 779 781 784 787 790 792 794
718 719 719 720 720 721 722 723 724 724 724 726 728 730 732 734 735 736 737 739 741 743 744 746 749 752 755 757 759 761 763 765 767 769 770 773 775 777 780 783 785 788 790 793
719 719 720 720 720 722 723 724 725 726 727 729 730 731 733 733 734 737 738 739 741 743 745 746 749 751 754 756 758 760 762 763 765 767 769 772 774 776 778 781 784 786 788 791
718 718 719 719 720 721 722 723 724 725 727 729 731 732 732 734 735 737 738 739 741 742 744 747 749 751 753 755 757 759 761 762 764 766 768 770 772 775 777 779 782 784 787 789
716 717 718 719 720 721 722 722 724 725 726 727 729 731 732 734 735 736 737 738 740 742 744 746 748 751 752 754 756 758 760 761 763 765 767 769 771 773 776 778 780 782 785 786